Tracking 34348 objects as of 9-Jun-2026
HD Live streaming from Space Station
objects crossing your sky now

DELTA 1 DEB

Track DELTA 1 DEB now!
10-day predictions


NORAD ID: 7026
Int'l Code: 1973-086S
Perigee: 1,310.1 km
Apogee: 1,517.9 km
Inclination: 102.1 °
Period: 113.9 minutes
Semi major axis: 7785 km
RCS: 0.0707 m2 (small)
Launch date: November 6, 1973
Source: United States (US)
Launch site: AIR FORCE WESTERN TEST RANGE (AFWTR)

Note: This is SATELLITE DEBRIS
Your satellite tracking list
Your tracking list is empty




NASA's NSSDC Master Catalog

Two Line Element Set (TLE):
1 07026U 73086S   26159.54984936  .00000231  00000-0  14714-2 0  9995
2 07026 102.0898 275.5477 0133440 162.6310 217.7771 12.63899678413544
Source of the keplerian elements: AFSPC